Year,Month,Day,Hour,Minute,Value (Times are PST for windspeed in km/hr)
2009,07,03,00,00,8.80
2009,07,03,00,01,7.50
2009,07,03,00,02,15.40
2009,07,03,00,03,11.50
2009,07,03,00,04,13.80
2009,07,03,00,05,13.40
2009,07,03,00,06,16.10
2009,07,03,00,07,14.20
2009,07,03,00,08,16.90
2009,07,03,00,09,18.60
2009,07,03,00,10,12.80
2009,07,03,00,11,14.00
2009,07,03,00,12,17.60
2009,07,03,00,13,13.20
2009,07,03,00,14,15.90
2009,07,03,00,15,14.20
2009,07,03,00,16,17.90
2009,07,03,00,17,16.40
2009,07,03,00,18,16.60
2009,07,03,00,19,16.90
2009,07,03,00,20,18.30
2009,07,03,00,21,22.40
2009,07,03,00,22,19.80
2009,07,03,00,23,20.80
2009,07,03,00,24,21.20
2009,07,03,00,25,18.10
2009,07,03,00,26,17.50
2009,07,03,00,27,18.00
2009,07,03,00,28,20.30
2009,07,03,00,29,20.10
2009,07,03,00,30,21.20
2009,07,03,00,31,20.00
2009,07,03,00,32,18.40
2009,07,03,00,33,17.10
2009,07,03,00,34,23.70
2009,07,03,00,35,24.10
2009,07,03,00,36,21.40
2009,07,03,00,37,25.40
2009,07,03,00,38,17.40
2009,07,03,00,39,24.20
2009,07,03,00,40,21.30
2009,07,03,00,41,20.30
2009,07,03,00,42,13.40
2009,07,03,00,43,19.00
2009,07,03,00,44,17.10
2009,07,03,00,45,14.90
2009,07,03,00,46,15.80
2009,07,03,00,47,19.20
2009,07,03,00,48,20.80
2009,07,03,00,49,20.20
2009,07,03,00,50,11.70
2009,07,03,00,51,13.30
2009,07,03,00,52,17.90
2009,07,03,00,53,18.10
2009,07,03,00,54,23.70
2009,07,03,00,55,20.50
2009,07,03,00,56,19.70
2009,07,03,00,57,17.30
2009,07,03,00,58,16.40
2009,07,03,00,59,13.40
2009,07,03,01,00,19.20
2009,07,03,01,01,23.00
2009,07,03,01,02,20.20
2009,07,03,01,03,16.30
2009,07,03,01,04,20.80
2009,07,03,01,05,17.50
2009,07,03,01,06,18.90
2009,07,03,01,07,19.70
2009,07,03,01,08,17.00
2009,07,03,01,09,20.40
2009,07,03,01,10,17.60
2009,07,03,01,11,16.30
2009,07,03,01,12,14.90
2009,07,03,01,13,18.50
2009,07,03,01,14,14.90
2009,07,03,01,15,12.20
2009,07,03,01,16,15.90
2009,07,03,01,17,12.80
2009,07,03,01,18,17.30
2009,07,03,01,19,8.40
2009,07,03,01,20,14.10
2009,07,03,01,21,15.40
2009,07,03,01,22,16.40
2009,07,03,01,23,14.70
2009,07,03,01,24,11.40
2009,07,03,01,25,2.40
2009,07,03,01,26,9.30
2009,07,03,01,27,11.00
2009,07,03,01,28,18.70
2009,07,03,01,29,13.50
2009,07,03,01,30,10.20
2009,07,03,01,31,14.70
2009,07,03,01,32,11.60
2009,07,03,01,33,7.10
2009,07,03,01,34,10.50
2009,07,03,01,35,7.20
2009,07,03,01,36,8.00
2009,07,03,01,37,3.80
2009,07,03,01,38,5.80
2009,07,03,01,39,8.20
2009,07,03,01,40,4.30
2009,07,03,01,41,3.00
2009,07,03,01,42,6.20
2009,07,03,01,43,14.90
2009,07,03,01,44,13.00
2009,07,03,01,45,8.90
2009,07,03,01,46,8.30
2009,07,03,01,47,5.30
2009,07,03,01,48,9.40
2009,07,03,01,49,3.10
2009,07,03,01,50,6.50
2009,07,03,01,51,5.10
2009,07,03,01,52,19.10
2009,07,03,01,53,10.70
2009,07,03,01,54,10.00
2009,07,03,01,55,16.30
2009,07,03,01,56,12.60
2009,07,03,01,57,7.40
2009,07,03,01,58,8.50
2009,07,03,01,59,2.70
2009,07,03,02,00,5.60
2009,07,03,02,01,9.40
2009,07,03,02,02,5.00
2009,07,03,02,03,5.00
2009,07,03,02,04,14.30
2009,07,03,02,05,8.90
2009,07,03,02,06,10.90
2009,07,03,02,07,4.80
2009,07,03,02,08,5.40
2009,07,03,02,09,3.80
2009,07,03,02,10,3.20
2009,07,03,02,11,5.80
2009,07,03,02,12,8.50
2009,07,03,02,13,5.70
2009,07,03,02,14,2.20
2009,07,03,02,15,0.30
2009,07,03,02,16,1.90
2009,07,03,02,17,7.10
2009,07,03,02,18,13.30
2009,07,03,02,19,10.80
2009,07,03,02,20,3.80
2009,07,03,02,21,2.90
2009,07,03,02,22,3.50
2009,07,03,02,23,6.80
2009,07,03,02,24,4.40
2009,07,03,02,25,5.60
2009,07,03,02,26,1.10
2009,07,03,02,27,1.40
2009,07,03,02,28,0.70
2009,07,03,02,29,2.30
2009,07,03,02,30,1.50
2009,07,03,02,31,0.90
2009,07,03,02,32,1.60
2009,07,03,02,33,2.90
2009,07,03,02,34,2.10
2009,07,03,02,35,1.80
2009,07,03,02,36,2.20
2009,07,03,02,37,2.60
2009,07,03,02,38,2.90
2009,07,03,02,39,3.30
2009,07,03,02,40,2.50
2009,07,03,02,41,0.70
2009,07,03,02,42,0.30
2009,07,03,02,43,1.60
2009,07,03,02,44,2.30
2009,07,03,02,45,4.00
2009,07,03,02,46,0.50
2009,07,03,02,47,0.80
2009,07,03,02,48,2.30
2009,07,03,02,49,3.70
2009,07,03,02,50,0.30
2009,07,03,02,51,0.60
2009,07,03,02,52,2.80
2009,07,03,02,53,0.50
2009,07,03,02,54,1.60
2009,07,03,02,55,0.30
2009,07,03,02,56,1.40
2009,07,03,02,57,1.10
2009,07,03,02,58,1.50
2009,07,03,02,59,2.30
2009,07,03,03,00,4.70
2009,07,03,03,01,2.40
2009,07,03,03,02,1.90
2009,07,03,03,03,3.10
2009,07,03,03,04,5.10
2009,07,03,03,05,4.10
2009,07,03,03,06,5.30
2009,07,03,03,07,5.80
2009,07,03,03,08,4.40
2009,07,03,03,09,2.20
2009,07,03,03,10,4.20
2009,07,03,03,11,5.80
2009,07,03,03,12,6.50
2009,07,03,03,13,4.60
2009,07,03,03,14,3.30
2009,07,03,03,15,2.90
2009,07,03,03,16,5.30
2009,07,03,03,17,5.50
2009,07,03,03,18,6.40
2009,07,03,03,19,3.50
2009,07,03,03,20,2.40
2009,07,03,03,21,1.00
2009,07,03,03,22,4.30
2009,07,03,03,23,3.80
2009,07,03,03,24,3.20
2009,07,03,03,25,5.90
2009,07,03,03,26,3.20
2009,07,03,03,27,5.40
2009,07,03,03,28,5.10
2009,07,03,03,29,6.50
2009,07,03,03,30,2.80
2009,07,03,03,31,5.90
2009,07,03,03,32,4.10
2009,07,03,03,33,3.60
2009,07,03,03,34,4.40
2009,07,03,03,35,2.90
2009,07,03,03,36,4.40
2009,07,03,03,37,3.10
2009,07,03,03,38,4.90
2009,07,03,03,39,4.70
2009,07,03,03,40,5.50
2009,07,03,03,41,4.00
2009,07,03,03,42,3.20
2009,07,03,03,43,6.30
2009,07,03,03,44,3.70
2009,07,03,03,45,4.00
2009,07,03,03,46,2.40
2009,07,03,03,47,3.00
2009,07,03,03,48,3.90
2009,07,03,03,49,2.50
2009,07,03,03,50,2.10
2009,07,03,03,51,2.70
2009,07,03,03,52,2.00
2009,07,03,03,53,3.10
2009,07,03,03,54,1.50
2009,07,03,03,55,0.80
2009,07,03,03,56,1.80
2009,07,03,03,57,5.10
2009,07,03,03,58,5.50
2009,07,03,03,59,2.30
2009,07,03,04,00,1.50
2009,07,03,04,01,2.20
2009,07,03,04,02,1.20
2009,07,03,04,03,1.20
2009,07,03,04,04,0.80
2009,07,03,04,05,3.00
2009,07,03,04,06,1.50
2009,07,03,04,07,1.00
2009,07,03,04,08,2.40
2009,07,03,04,09,4.90
2009,07,03,04,10,0.90
2009,07,03,04,11,0.20
2009,07,03,04,12,0.20
2009,07,03,04,13,0.80
2009,07,03,04,14,0.20
2009,07,03,04,15,0.70
2009,07,03,04,16,2.30
2009,07,03,04,17,0.90
2009,07,03,04,18,0.50
2009,07,03,04,19,3.00
2009,07,03,04,20,2.20
2009,07,03,04,21,1.20
2009,07,03,04,22,1.00
2009,07,03,04,23,0.50
2009,07,03,04,24,1.90
2009,07,03,04,25,0.10
2009,07,03,04,26,0.00
2009,07,03,04,27,0.10
2009,07,03,04,28,0.30
2009,07,03,04,29,0.00
2009,07,03,04,30,0.00
2009,07,03,04,31,0.00
2009,07,03,04,32,0.00
2009,07,03,04,33,0.10
2009,07,03,04,34,1.20
2009,07,03,04,35,1.20
2009,07,03,04,36,0.40
2009,07,03,04,37,1.80
2009,07,03,04,38,3.50
2009,07,03,04,39,0.10
2009,07,03,04,40,0.20
2009,07,03,04,41,0.60
2009,07,03,04,42,0.30
2009,07,03,04,43,0.40
2009,07,03,04,44,2.70
2009,07,03,04,45,2.10
2009,07,03,04,46,1.40
2009,07,03,04,47,1.30
2009,07,03,04,48,1.00
2009,07,03,04,49,2.60
2009,07,03,04,50,5.10
2009,07,03,04,51,2.90
2009,07,03,04,52,5.30
2009,07,03,04,53,6.30
2009,07,03,04,54,3.50
2009,07,03,04,55,2.30
2009,07,03,04,56,4.20
2009,07,03,04,57,5.60
2009,07,03,04,58,4.70
2009,07,03,04,59,4.00
2009,07,03,05,00,3.30
2009,07,03,05,01,3.90
2009,07,03,05,02,5.60
2009,07,03,05,03,5.80
2009,07,03,05,04,5.00
2009,07,03,05,05,5.50
2009,07,03,05,06,5.20
2009,07,03,05,07,5.40
2009,07,03,05,08,4.40
2009,07,03,05,09,4.50
2009,07,03,05,10,2.90
2009,07,03,05,11,3.70
2009,07,03,05,12,0.80
2009,07,03,05,13,0.00
2009,07,03,05,14,1.40
2009,07,03,05,15,2.20
2009,07,03,05,16,2.80
2009,07,03,05,17,3.40
2009,07,03,05,18,1.40
2009,07,03,05,19,1.30
2009,07,03,05,20,1.90
2009,07,03,05,21,2.80
2009,07,03,05,22,2.80
2009,07,03,05,23,2.20
2009,07,03,05,24,1.30
2009,07,03,05,25,2.70
2009,07,03,05,26,1.30
2009,07,03,05,27,3.20
2009,07,03,05,28,1.50
2009,07,03,05,29,2.70
2009,07,03,05,30,2.80
2009,07,03,05,31,3.90
2009,07,03,05,32,3.40
2009,07,03,05,33,2.60
2009,07,03,05,34,1.40
2009,07,03,05,35,2.50
2009,07,03,05,36,2.70
2009,07,03,05,37,3.20
2009,07,03,05,38,3.20
2009,07,03,05,39,3.20
2009,07,03,05,40,2.50
2009,07,03,05,41,1.10
2009,07,03,05,42,0.40
2009,07,03,05,43,0.30
2009,07,03,05,44,2.90
2009,07,03,05,45,3.60
2009,07,03,05,46,2.90
2009,07,03,05,47,1.30
2009,07,03,05,48,0.30
2009,07,03,05,49,0.50
2009,07,03,05,50,0.20
2009,07,03,05,51,0.00
2009,07,03,05,52,1.10
2009,07,03,05,53,0.50
2009,07,03,05,54,1.90
2009,07,03,05,55,1.90
2009,07,03,05,56,0.00
2009,07,03,05,57,1.60
2009,07,03,05,58,1.10
2009,07,03,05,59,2.60
2009,07,03,06,00,1.10
2009,07,03,06,01,1.80
2009,07,03,06,02,1.40
2009,07,03,06,03,1.10
2009,07,03,06,04,0.30
2009,07,03,06,05,0.90
2009,07,03,06,06,0.50
2009,07,03,06,07,0.30
2009,07,03,06,08,0.00
2009,07,03,06,09,0.20
2009,07,03,06,10,2.20
2009,07,03,06,11,3.90
2009,07,03,06,12,0.90
2009,07,03,06,13,0.40
2009,07,03,06,14,1.00
2009,07,03,06,15,1.50
2009,07,03,06,16,1.90
2009,07,03,06,17,0.90
2009,07,03,06,18,0.40
2009,07,03,06,19,1.00
2009,07,03,06,20,0.60
2009,07,03,06,21,0.80
2009,07,03,06,22,0.90
2009,07,03,06,23,0.20
2009,07,03,06,24,0.00
2009,07,03,06,25,0.30
2009,07,03,06,26,3.00
2009,07,03,06,27,3.20
2009,07,03,06,28,1.90
2009,07,03,06,29,4.40
2009,07,03,06,30,8.60
2009,07,03,06,31,4.00
2009,07,03,06,32,2.60
2009,07,03,06,33,4.10
2009,07,03,06,34,6.00
2009,07,03,06,35,1.00
2009,07,03,06,36,0.70
2009,07,03,06,37,2.10
2009,07,03,06,38,0.30
2009,07,03,06,39,1.00
2009,07,03,06,40,0.60
2009,07,03,06,41,0.30
2009,07,03,06,42,2.10
2009,07,03,06,43,5.60
2009,07,03,06,44,3.50
2009,07,03,06,45,0.60
2009,07,03,06,46,0.60
2009,07,03,06,47,0.80
2009,07,03,06,48,1.00
2009,07,03,06,49,1.70
2009,07,03,06,50,0.50
2009,07,03,06,51,1.20
2009,07,03,06,52,0.30
2009,07,03,06,53,0.20
2009,07,03,06,54,0.10
2009,07,03,06,55,0.30
2009,07,03,06,56,1.00
2009,07,03,06,57,1.80
2009,07,03,06,58,0.90
2009,07,03,06,59,0.80
2009,07,03,07,00,1.70
2009,07,03,07,01,1.80
2009,07,03,07,02,0.20
2009,07,03,07,03,0.90
2009,07,03,07,04,0.20
2009,07,03,07,05,0.30
2009,07,03,07,06,0.10
2009,07,03,07,07,0.90
2009,07,03,07,08,0.60
2009,07,03,07,09,1.90
2009,07,03,07,10,1.30
2009,07,03,07,11,3.50
2009,07,03,07,12,2.10
2009,07,03,07,13,2.10
2009,07,03,07,14,5.80
2009,07,03,07,15,6.20
2009,07,03,07,16,8.10
2009,07,03,07,17,6.70
2009,07,03,07,18,6.60
2009,07,03,07,19,6.20
2009,07,03,07,20,12.00
2009,07,03,07,21,11.70
2009,07,03,07,22,8.10
2009,07,03,07,23,8.50
2009,07,03,07,24,9.10
2009,07,03,07,25,6.40
2009,07,03,07,26,5.40
2009,07,03,07,27,6.80
2009,07,03,07,28,9.10
2009,07,03,07,29,6.40
2009,07,03,07,30,8.50
2009,07,03,07,31,10.90
2009,07,03,07,32,8.20
2009,07,03,07,33,11.70
2009,07,03,07,34,5.30
2009,07,03,07,35,10.50
2009,07,03,07,36,11.70
2009,07,03,07,37,9.40
2009,07,03,07,38,10.10
2009,07,03,07,39,8.40
2009,07,03,07,40,11.80
2009,07,03,07,41,8.00
2009,07,03,07,42,12.20
2009,07,03,07,43,8.70
2009,07,03,07,44,9.80
2009,07,03,07,45,9.90
2009,07,03,07,46,13.40
2009,07,03,07,47,9.50
2009,07,03,07,48,8.50
2009,07,03,07,49,10.50
2009,07,03,07,50,13.30
2009,07,03,07,51,8.70
2009,07,03,07,52,6.10
2009,07,03,07,53,4.30
2009,07,03,07,54,6.30
2009,07,03,07,55,8.40
2009,07,03,07,56,4.40
2009,07,03,07,57,5.20
2009,07,03,07,58,6.00
2009,07,03,07,59,6.40
2009,07,03,08,00,5.80
2009,07,03,08,01,4.80
2009,07,03,08,02,5.90
2009,07,03,08,03,8.00
2009,07,03,08,04,6.70
2009,07,03,08,05,6.30
2009,07,03,08,06,6.10
2009,07,03,08,07,7.70
2009,07,03,08,08,12.90
2009,07,03,08,09,5.50
2009,07,03,08,10,6.40
2009,07,03,08,11,10.10
2009,07,03,08,12,11.80
2009,07,03,08,13,4.70
2009,07,03,08,14,4.70
2009,07,03,08,15,3.10
2009,07,03,08,16,7.20
2009,07,03,08,17,5.10
2009,07,03,08,18,3.30
2009,07,03,08,19,4.70
2009,07,03,08,20,2.70
2009,07,03,08,21,6.40
2009,07,03,08,22,5.70
2009,07,03,08,23,7.60
2009,07,03,08,24,8.70
2009,07,03,08,25,7.50
2009,07,03,08,26,6.30
2009,07,03,08,27,7.60
2009,07,03,08,28,7.80
2009,07,03,08,29,5.50
2009,07,03,08,30,9.40
2009,07,03,08,31,10.60
2009,07,03,08,32,9.70
2009,07,03,08,33,7.10
2009,07,03,08,34,7.30
2009,07,03,08,35,8.00
2009,07,03,08,36,10.10
2009,07,03,08,37,9.70
2009,07,03,08,38,11.30
2009,07,03,08,39,5.60
2009,07,03,08,40,8.90
2009,07,03,08,41,6.80
2009,07,03,08,42,13.40
2009,07,03,08,43,7.60
2009,07,03,08,44,9.50
2009,07,03,08,45,8.70
2009,07,03,08,46,10.20
2009,07,03,08,47,6.40
2009,07,03,08,48,5.20
2009,07,03,08,49,5.20
2009,07,03,08,50,7.00
2009,07,03,08,51,7.90
2009,07,03,08,52,7.40
2009,07,03,08,53,6.80
2009,07,03,08,54,8.10
2009,07,03,08,55,7.20
2009,07,03,08,56,10.00
2009,07,03,08,57,7.70
2009,07,03,08,58,7.50
2009,07,03,08,59,9.40
2009,07,03,09,00,5.50
2009,07,03,09,01,8.10
2009,07,03,09,02,8.10
2009,07,03,09,03,4.30
2009,07,03,09,04,6.80
2009,07,03,09,05,5.60
2009,07,03,09,06,9.60
2009,07,03,09,07,7.50
2009,07,03,09,08,6.40
2009,07,03,09,09,11.20
2009,07,03,09,10,8.70
2009,07,03,09,11,8.10
2009,07,03,09,12,8.10
2009,07,03,09,13,9.40
2009,07,03,09,14,9.40
2009,07,03,09,15,5.60
2009,07,03,09,16,12.80
2009,07,03,09,17,11.00
2009,07,03,09,18,6.00
2009,07,03,09,19,9.20
2009,07,03,09,20,6.30
2009,07,03,09,21,5.60
2009,07,03,09,22,7.50
2009,07,03,09,23,7.10
2009,07,03,09,24,4.60
2009,07,03,09,25,5.30
2009,07,03,09,26,7.90
2009,07,03,09,27,6.80
2009,07,03,09,28,7.00
2009,07,03,09,29,5.50
2009,07,03,09,30,4.70
2009,07,03,09,31,9.80
2009,07,03,09,32,11.20
2009,07,03,09,33,8.00
2009,07,03,09,34,10.40
2009,07,03,09,35,5.40
2009,07,03,09,36,6.00
2009,07,03,09,37,5.10
2009,07,03,09,38,7.10
2009,07,03,09,39,7.20
2009,07,03,09,40,6.80
2009,07,03,09,41,9.50
2009,07,03,09,42,6.40
2009,07,03,09,43,8.90
2009,07,03,09,44,11.80
2009,07,03,09,45,5.60
2009,07,03,09,46,8.60
2009,07,03,09,47,5.90
2009,07,03,09,48,7.40
2009,07,03,09,49,6.70
2009,07,03,09,50,8.90
2009,07,03,09,51,7.30
2009,07,03,09,52,5.80
2009,07,03,09,53,7.20
2009,07,03,09,54,6.30
2009,07,03,09,55,6.70
2009,07,03,09,56,9.30
2009,07,03,09,57,9.00
2009,07,03,09,58,9.00
2009,07,03,09,59,9.50
2009,07,03,10,00,10.70
2009,07,03,10,01,9.00
2009,07,03,10,02,6.80
2009,07,03,10,03,9.60
2009,07,03,10,04,8.50
2009,07,03,10,05,10.60
2009,07,03,10,06,8.00
2009,07,03,10,07,7.90
2009,07,03,10,08,8.10
2009,07,03,10,09,11.30
2009,07,03,10,10,10.50
2009,07,03,10,11,7.90
2009,07,03,10,12,10.50
2009,07,03,10,13,7.50
2009,07,03,10,14,7.60
2009,07,03,10,15,9.50
2009,07,03,10,16,11.40
2009,07,03,10,17,8.10
2009,07,03,10,18,10.90
2009,07,03,10,19,8.50
2009,07,03,10,20,9.90
2009,07,03,10,21,11.70
2009,07,03,10,22,10.00
2009,07,03,10,23,10.50
2009,07,03,10,24,10.50
2009,07,03,10,25,9.50
2009,07,03,10,26,6.30
2009,07,03,10,27,5.10
2009,07,03,10,28,5.60
2009,07,03,10,29,10.90
2009,07,03,10,30,8.70
2009,07,03,10,31,12.30
2009,07,03,10,32,8.90
2009,07,03,10,33,5.80
2009,07,03,10,34,5.50
2009,07,03,10,35,7.30
2009,07,03,10,36,4.40
2009,07,03,10,37,5.00
2009,07,03,10,38,7.90
2009,07,03,10,39,7.00
2009,07,03,10,40,6.80
2009,07,03,10,41,8.10
2009,07,03,10,42,8.00
2009,07,03,10,43,8.80
2009,07,03,10,44,8.30
2009,07,03,10,45,9.40
2009,07,03,10,46,9.20
2009,07,03,10,47,9.50
2009,07,03,10,48,5.30
2009,07,03,10,49,5.70
2009,07,03,10,50,6.30
2009,07,03,10,51,10.30
2009,07,03,10,52,12.50
2009,07,03,10,53,9.70
2009,07,03,10,54,9.20
2009,07,03,10,55,6.70
2009,07,03,10,56,6.80
2009,07,03,10,57,8.30
2009,07,03,10,58,7.60
2009,07,03,10,59,6.00
2009,07,03,11,00,4.70
2009,07,03,11,01,7.00
2009,07,03,11,02,5.90
2009,07,03,11,03,9.60
2009,07,03,11,04,10.10
2009,07,03,11,05,7.80
2009,07,03,11,06,8.00
2009,07,03,11,07,7.80
2009,07,03,11,08,7.10
2009,07,03,11,09,5.70
2009,07,03,11,10,7.30
2009,07,03,11,11,8.30
2009,07,03,11,12,10.40
2009,07,03,11,13,12.10
2009,07,03,11,14,12.40
2009,07,03,11,15,8.60
2009,07,03,11,16,6.90
2009,07,03,11,17,11.20
2009,07,03,11,18,9.10
2009,07,03,11,19,4.60
2009,07,03,11,20,8.90
2009,07,03,11,21,9.20
2009,07,03,11,22,5.80
2009,07,03,11,23,5.30
2009,07,03,11,24,3.40
2009,07,03,11,25,4.30
2009,07,03,11,26,4.30
2009,07,03,11,27,5.50
2009,07,03,11,28,6.20
2009,07,03,11,29,11.90
2009,07,03,11,30,6.80
2009,07,03,11,31,7.10
2009,07,03,11,32,6.40
2009,07,03,11,33,8.80
2009,07,03,11,34,6.80
2009,07,03,11,35,8.00
2009,07,03,11,36,6.90
2009,07,03,11,37,4.00
2009,07,03,11,38,6.80
2009,07,03,11,39,10.50
2009,07,03,11,40,6.80
2009,07,03,11,41,8.30
2009,07,03,11,42,5.80
2009,07,03,11,43,4.40
2009,07,03,11,44,5.20
2009,07,03,11,45,7.30
2009,07,03,11,46,4.10
2009,07,03,11,47,6.80
2009,07,03,11,48,6.50
2009,07,03,11,49,6.90
2009,07,03,11,50,9.70
2009,07,03,11,51,6.10
2009,07,03,11,52,7.10
2009,07,03,11,53,5.30
2009,07,03,11,54,6.50
2009,07,03,11,55,7.20
2009,07,03,11,56,7.50
2009,07,03,11,57,8.40
2009,07,03,11,58,7.10
2009,07,03,11,59,7.00
2009,07,03,12,00,7.10
2009,07,03,12,01,5.20
2009,07,03,12,02,6.80
2009,07,03,12,03,2.90
2009,07,03,12,04,5.30
2009,07,03,12,05,8.90
2009,07,03,12,06,4.80
2009,07,03,12,07,6.40
2009,07,03,12,08,4.80
2009,07,03,12,09,3.60
2009,07,03,12,10,9.70
2009,07,03,12,11,10.30
2009,07,03,12,12,6.40
2009,07,03,12,13,7.70
2009,07,03,12,14,5.50
2009,07,03,12,15,7.20
2009,07,03,12,16,7.00
2009,07,03,12,17,4.10
2009,07,03,12,18,5.20
2009,07,03,12,19,9.40
2009,07,03,12,20,3.50
2009,07,03,12,21,5.30
2009,07,03,12,22,5.10
2009,07,03,12,23,5.60
2009,07,03,12,24,8.10
2009,07,03,12,25,7.60
2009,07,03,12,26,7.90
2009,07,03,12,27,6.60
2009,07,03,12,28,8.90
2009,07,03,12,29,8.10
2009,07,03,12,30,7.30
2009,07,03,12,31,4.70
2009,07,03,12,32,3.80
2009,07,03,12,33,7.70
2009,07,03,12,34,10.60
2009,07,03,12,35,8.40
2009,07,03,12,36,6.40
2009,07,03,12,37,7.70
2009,07,03,12,38,7.60
2009,07,03,12,39,5.80
2009,07,03,12,40,6.00
2009,07,03,12,41,10.30
2009,07,03,12,42,7.60
2009,07,03,12,43,8.00
2009,07,03,12,44,8.00
2009,07,03,12,45,9.30
2009,07,03,12,46,7.20
2009,07,03,12,47,7.10
2009,07,03,12,48,6.70
2009,07,03,12,49,8.30
2009,07,03,12,50,5.80
2009,07,03,12,51,3.80
2009,07,03,12,52,4.00
2009,07,03,12,53,7.90
2009,07,03,12,54,12.40
2009,07,03,12,55,11.20
2009,07,03,12,56,10.80
2009,07,03,12,57,11.60
2009,07,03,12,58,9.90
2009,07,03,12,59,11.30
2009,07,03,13,00,8.70
2009,07,03,13,01,7.40
2009,07,03,13,02,13.10
2009,07,03,13,03,6.70
2009,07,03,13,04,8.10
2009,07,03,13,05,5.30
2009,07,03,13,06,5.70
2009,07,03,13,07,6.20
2009,07,03,13,08,9.00
2009,07,03,13,09,7.60
2009,07,03,13,10,8.00
2009,07,03,13,11,10.30
2009,07,03,13,12,9.70
2009,07,03,13,13,9.80
2009,07,03,13,14,6.40
2009,07,03,13,15,8.40
2009,07,03,13,16,9.00
2009,07,03,13,17,9.10
2009,07,03,13,18,5.50
2009,07,03,13,19,8.70
2009,07,03,13,20,6.70
2009,07,03,13,21,8.00
2009,07,03,13,22,8.10
2009,07,03,13,23,10.50
2009,07,03,13,24,10.00
2009,07,03,13,25,5.10
2009,07,03,13,26,8.50
2009,07,03,13,27,8.50
2009,07,03,13,28,8.80
2009,07,03,13,29,10.40
2009,07,03,13,30,8.60
2009,07,03,13,31,8.50
2009,07,03,13,32,5.80
2009,07,03,13,33,10.70
2009,07,03,13,34,11.10
2009,07,03,13,35,9.40
2009,07,03,13,36,7.30
2009,07,03,13,37,8.30
2009,07,03,13,38,6.80
2009,07,03,13,39,6.80
2009,07,03,13,40,6.60
2009,07,03,13,41,8.40
2009,07,03,13,42,7.40
2009,07,03,13,43,7.90
2009,07,03,13,44,6.90
2009,07,03,13,45,6.70
2009,07,03,13,46,10.60
2009,07,03,13,47,11.50
2009,07,03,13,48,6.50
2009,07,03,13,49,7.90
2009,07,03,13,50,7.40
2009,07,03,13,51,7.60
2009,07,03,13,52,8.10
2009,07,03,13,53,7.60
2009,07,03,13,54,7.50
2009,07,03,13,55,7.60
2009,07,03,13,56,10.90
2009,07,03,13,57,9.20
2009,07,03,13,58,6.70
2009,07,03,13,59,7.90
2009,07,03,14,00,7.30
2009,07,03,14,01,9.20
2009,07,03,14,02,9.70
2009,07,03,14,03,5.10
2009,07,03,14,04,5.50
2009,07,03,14,05,4.60
2009,07,03,14,06,7.90
2009,07,03,14,07,12.60
2009,07,03,14,08,8.10
2009,07,03,14,09,9.00
2009,07,03,14,10,10.00
2009,07,03,14,11,9.80
2009,07,03,14,12,10.70
2009,07,03,14,13,10.50
2009,07,03,14,14,8.60
2009,07,03,14,15,10.20
2009,07,03,14,16,8.80
2009,07,03,14,17,6.50
2009,07,03,14,18,6.80
2009,07,03,14,19,7.70
2009,07,03,14,20,8.90
2009,07,03,14,21,11.00
2009,07,03,14,22,5.30
2009,07,03,14,23,6.20
2009,07,03,14,24,6.00
2009,07,03,14,25,5.30
2009,07,03,14,26,5.40
2009,07,03,14,27,10.40
2009,07,03,14,28,8.50
2009,07,03,14,29,7.90
2009,07,03,14,30,7.10
2009,07,03,14,31,6.80
2009,07,03,14,32,8.30
2009,07,03,14,33,11.50
2009,07,03,14,34,6.20
2009,07,03,14,35,6.90
2009,07,03,14,36,7.30
2009,07,03,14,37,7.00
2009,07,03,14,38,9.00
2009,07,03,14,39,4.80
2009,07,03,14,40,6.00
2009,07,03,14,41,6.60
2009,07,03,14,42,13.00
2009,07,03,14,43,10.20
2009,07,03,14,44,7.40
2009,07,03,14,45,6.60
2009,07,03,14,46,6.40
2009,07,03,14,47,6.40
2009,07,03,14,48,5.40
2009,07,03,14,49,5.60
2009,07,03,14,50,8.90
2009,07,03,14,51,5.60
2009,07,03,14,52,6.60
2009,07,03,14,53,4.80
2009,07,03,14,54,6.40
2009,07,03,14,55,2.80
2009,07,03,14,56,8.20
2009,07,03,14,57,3.80
2009,07,03,14,58,5.60
2009,07,03,14,59,5.00
2009,07,03,15,00,6.10
2009,07,03,15,01,3.50
2009,07,03,15,02,5.40
2009,07,03,15,03,6.70
2009,07,03,15,04,4.80
2009,07,03,15,05,5.40
2009,07,03,15,06,6.70
2009,07,03,15,07,3.10
2009,07,03,15,08,9.30
2009,07,03,15,09,9.50
2009,07,03,15,10,7.40
2009,07,03,15,11,3.50
2009,07,03,15,12,4.00
2009,07,03,15,13,7.20
2009,07,03,15,14,5.70
2009,07,03,15,15,4.80
2009,07,03,15,16,5.40
2009,07,03,15,17,5.90
2009,07,03,15,18,8.10
2009,07,03,15,19,7.10
2009,07,03,15,20,6.80
2009,07,03,15,21,4.70
2009,07,03,15,22,5.20
2009,07,03,15,23,4.90
2009,07,03,15,24,8.00
2009,07,03,15,25,7.40
2009,07,03,15,26,5.60
2009,07,03,15,27,7.40
2009,07,03,15,28,2.30
2009,07,03,15,29,4.50
2009,07,03,15,30,7.90
2009,07,03,15,31,7.30
2009,07,03,15,32,4.20
2009,07,03,15,33,4.90
2009,07,03,15,34,6.00
2009,07,03,15,35,6.30
2009,07,03,15,36,3.80
2009,07,03,15,37,5.50
2009,07,03,15,38,4.20
2009,07,03,15,39,3.70
2009,07,03,15,40,6.40
2009,07,03,15,41,6.50
2009,07,03,15,42,5.10
2009,07,03,15,43,8.50
2009,07,03,15,44,7.60
2009,07,03,15,45,5.40
2009,07,03,15,46,5.80
2009,07,03,15,47,11.30
2009,07,03,15,48,10.30
2009,07,03,15,49,9.60
2009,07,03,15,50,7.20
2009,07,03,15,51,4.70
2009,07,03,15,52,6.00
2009,07,03,15,53,5.40
2009,07,03,15,54,6.80
2009,07,03,15,55,4.90
2009,07,03,15,56,3.70
2009,07,03,15,57,5.40
2009,07,03,15,58,5.20
2009,07,03,15,59,3.90
2009,07,03,16,00,4.30
2009,07,03,16,01,3.80
2009,07,03,16,02,4.30
2009,07,03,16,03,5.30
2009,07,03,16,04,6.80
2009,07,03,16,05,3.90
2009,07,03,16,06,3.80
2009,07,03,16,07,5.30
2009,07,03,16,08,6.10
2009,07,03,16,09,4.50
2009,07,03,16,10,3.00
2009,07,03,16,11,4.30
2009,07,03,16,12,6.00
2009,07,03,16,13,6.50
2009,07,03,16,14,4.80
2009,07,03,16,15,3.90
2009,07,03,16,16,3.40
2009,07,03,16,17,8.20
2009,07,03,16,18,5.10
2009,07,03,16,19,3.90
2009,07,03,16,20,2.60
2009,07,03,16,21,5.20
2009,07,03,16,22,3.20
2009,07,03,16,23,1.40
2009,07,03,16,24,3.90
2009,07,03,16,25,3.70
2009,07,03,16,26,2.80
2009,07,03,16,27,2.70
2009,07,03,16,28,3.80
2009,07,03,16,29,2.00
2009,07,03,16,30,2.30
2009,07,03,16,31,2.80
2009,07,03,16,32,4.70
2009,07,03,16,33,4.70
2009,07,03,16,34,8.60
2009,07,03,16,35,6.00
2009,07,03,16,36,6.90
2009,07,03,16,37,3.10
2009,07,03,16,38,4.70
2009,07,03,16,39,4.40
2009,07,03,16,40,4.70
2009,07,03,16,41,2.40
2009,07,03,16,42,3.60
2009,07,03,16,43,1.30
2009,07,03,16,44,2.70
2009,07,03,16,45,3.70
2009,07,03,16,46,3.50
2009,07,03,16,47,1.90
2009,07,03,16,48,2.10
2009,07,03,16,49,2.30
2009,07,03,16,50,4.00
2009,07,03,16,51,2.50
2009,07,03,16,52,4.10
2009,07,03,16,53,5.10
2009,07,03,16,54,5.40
2009,07,03,16,55,4.70
2009,07,03,16,56,4.80
2009,07,03,16,57,5.00
2009,07,03,16,58,6.20
2009,07,03,16,59,5.50
2009,07,03,17,00,4.70
2009,07,03,17,01,6.30
2009,07,03,17,02,6.70
2009,07,03,17,03,6.50
2009,07,03,17,04,8.60
2009,07,03,17,05,6.00
2009,07,03,17,06,4.70
2009,07,03,17,07,7.80
2009,07,03,17,08,8.00
2009,07,03,17,09,5.70
2009,07,03,17,10,6.30
2009,07,03,17,11,5.10
2009,07,03,17,12,5.10
2009,07,03,17,13,5.30
2009,07,03,17,14,6.00
2009,07,03,17,15,5.40
2009,07,03,17,16,5.80
2009,07,03,17,17,6.80
2009,07,03,17,18,7.30
2009,07,03,17,19,6.40
2009,07,03,17,20,4.50
2009,07,03,17,21,3.90
2009,07,03,17,22,3.90
2009,07,03,17,23,4.90
2009,07,03,17,24,4.50
2009,07,03,17,25,5.30
2009,07,03,17,26,7.40
2009,07,03,17,27,6.60
2009,07,03,17,28,8.40
2009,07,03,17,29,6.70
2009,07,03,17,30,4.70
2009,07,03,17,31,4.00
2009,07,03,17,32,4.70
2009,07,03,17,33,6.70
2009,07,03,17,34,5.10
2009,07,03,17,35,6.20
2009,07,03,17,36,6.20
2009,07,03,17,37,5.50
2009,07,03,17,38,4.70
2009,07,03,17,39,4.80
2009,07,03,17,40,5.40
2009,07,03,17,41,5.00
2009,07,03,17,42,2.80
2009,07,03,17,43,5.60
2009,07,03,17,44,4.80
2009,07,03,17,45,5.30
2009,07,03,17,46,4.10
2009,07,03,17,47,5.50
2009,07,03,17,48,4.40
2009,07,03,17,49,5.80
2009,07,03,17,50,4.10
2009,07,03,17,51,4.90
2009,07,03,17,52,5.30
2009,07,03,17,53,3.90
2009,07,03,17,54,5.30
2009,07,03,17,55,4.70
2009,07,03,17,56,2.70
2009,07,03,17,57,1.30
2009,07,03,17,58,5.90